Home > Time Zones > World Clock > Weather > Macau > Macau > Past weeks

Flag for Macau Weather past 2 weeks in Macau, Macau

Now
54 °F

Light rain. Scattered clouds.


Feels Like: 49 °F
Forecast: 55 / 66 °F
Wind: 18 mph from North

Location: Taipa

Current Time: Dec 19, 2014 at 4:06:09 PM

Latest Report: Dec 19, 2014 at 3:30 PM


Visibility: 4 mi

Pressure: 30.18 "Hg

Humidity: 82%

Dew point: 48 °F

Location of MacauLocation

Historic Weather in Macau — Graph

°F

Macau temperature yesterday

Maximum temperature yesterday: 59 °F (at 8:30 PM)
Minimum temperature yesterday: 54 °F (at 6:30 AM)
Average temperature yesterday: 56 °F

Past Weeks' High & Low Weather Summary

 TemperatureHumidityPressure
High70 °F (Dec 9, 12:00 PM)94% (Dec 8, 3:30 AM)30.39 "Hg (Dec 8, 3:30 AM)
Low52 °F (Dec 19, 5:00 AM)27% (Dec 17, 3:00 PM)30.01 "Hg (Dec 10, 3:00 PM)
Average61 °F64%30.18 "Hg
* Reported Dec 4 2:00 PM — Dec 19 2:30 PM, Macau, Weather by CustomWeather, © 2014

Note: Actual official high and low records may vary slightly from our data, if they occured in-between our weather recording intervals... More about our weather records

Advertising

Macau weather history for previous 24 hours

 ConditionsComfort  
Time TempWeatherWind HumidityBarometerVisibility
2:30 PM
Dec 19
55 °FScattered clouds.21 mph77%30.18 "Hg5 mi
2:00 PM55 °FScattered clouds.21 mph77%30.21 "Hg4 mi
1:30 PM54 °FScattered clouds.21 mph88%30.21 "Hg4 mi
1:00 PM54 °FScattered clouds.18 mph88%30.24 "Hg4 mi
12:30 PM54 °FScattered clouds.21 mph88%30.27 "Hg4 mi
12:00 PM54 °FLight rain. Fog.20 mph88%30.27 "Hg3 mi
11:30 AM54 °FScattered clouds.20 mph88%30.27 "Hg4 mi
11:00 AM52 °FLight rain. Fog.18 mph94%30.30 "Hg3 mi
10:30 AM52 °FLight rain. Fog.20 mph88%30.30 "Hg2 mi
10:00 AM52 °FLight rain. Fog.21 mph88%30.30 "Hg3 mi
9:30 AM52 °FLight rain. Fog.23 mph88%30.30 "Hg2 mi
9:00 AM52 °FLight rain. Fog.20 mph88%30.30 "Hg3 mi
8:30 AM52 °FLight rain. Fog.22 mph88%30.27 "Hg2 mi
8:00 AM52 °FLight rain. Fog.22 mph88%30.27 "Hg3 mi
7:30 AM52 °FLight rain. Fog.21 mph88%30.24 "Hg2 mi
7:00 AM52 °FLight rain. Fog.22 mph88%30.24 "Hg2 mi
6:30 AM52 °FLight rain. Passing clouds.21 mph94%30.24 "Hg4 mi
6:00 AM52 °FLight rain. Passing clouds.20 mph94%30.24 "Hg4 mi
5:00 AM52 °FLight rain. Passing clouds.18 mph88%30.24 "Hg4 mi
4:30 AM54 °FLight rain. Passing clouds.17 mph77%30.24 "Hg6 mi
4:00 AM54 °FPassing clouds.18 mph77%30.24 "HgN/A
3:30 AM57 °FPassing clouds.17 mph67%30.24 "HgN/A
3:00 AM57 °FPassing clouds.15 mph67%30.24 "HgN/A
2:30 AM57 °FPassing clouds.14 mph63%30.24 "HgN/A
2:00 AM57 °FPassing clouds.14 mph63%30.24 "HgN/A
1:30 AM55 °FLight rain. Passing clouds.14 mph67%30.27 "Hg6 mi
1:00 AM55 °FPassing clouds.14 mph67%30.27 "Hg6 mi
12:30 AM57 °FPassing clouds.14 mph63%30.27 "Hg6 mi
12:00 AM57 °FLight rain. Passing clouds.15 mph63%30.27 "Hg6 mi
11:00 PM
Dec 18
57 °FLight rain. Passing clouds.14 mph55%30.30 "HgN/A
10:30 PM57 °FPassing clouds.14 mph59%30.30 "HgN/A
10:00 PM57 °FLight rain. Passing clouds.14 mph59%30.30 "HgN/A
9:30 PM59 °FPassing clouds.14 mph55%30.30 "HgN/A
9:00 PM59 °FPassing clouds.13 mph51%30.30 "HgN/A
8:30 PM59 °FPassing clouds.13 mph55%30.30 "HgN/A
8:00 PM57 °FPassing clouds.13 mph51%30.27 "HgN/A
7:30 PM57 °FPassing clouds.14 mph51%30.27 "HgN/A
7:00 PM57 °FPassing clouds.12 mph51%30.27 "HgN/A
6:30 PM57 °FPassing clouds.12 mph51%30.24 "HgN/A
6:00 PM57 °FLight rain. Passing clouds.12 mph48%30.24 "Hg6 mi
5:30 PM57 °FPassing clouds.15 mph44%30.24 "HgN/A
5:00 PM57 °FPassing clouds.15 mph44%30.24 "HgN/A
4:30 PM57 °FPassing clouds.15 mph41%30.24 "HgN/A
4:00 PM57 °FPassing clouds.15 mph41%30.24 "HgN/A
Weather by CustomWeather, © 2014

See weather overviewHow to use our weather pages